Year,Month,Day,Hour,Minute,Value (Times are PST for temperature in C)
2014,11,22,00,00,8.20
2014,11,22,00,01,8.20
2014,11,22,00,02,8.20
2014,11,22,00,03,8.20
2014,11,22,00,04,8.20
2014,11,22,00,05,8.20
2014,11,22,00,06,8.20
2014,11,22,00,07,8.20
2014,11,22,00,08,8.20
2014,11,22,00,09,8.20
2014,11,22,00,10,8.20
2014,11,22,00,11,8.20
2014,11,22,00,12,8.10
2014,11,22,00,13,8.10
2014,11,22,00,14,8.10
2014,11,22,00,15,8.10
2014,11,22,00,16,8.10
2014,11,22,00,17,8.00
2014,11,22,00,18,8.00
2014,11,22,00,19,8.00
2014,11,22,00,20,7.90
2014,11,22,00,21,7.90
2014,11,22,00,22,7.80
2014,11,22,00,23,7.80
2014,11,22,00,24,7.70
2014,11,22,00,25,7.70
2014,11,22,00,26,7.70
2014,11,22,00,27,7.60
2014,11,22,00,28,7.60
2014,11,22,00,29,7.60
2014,11,22,00,30,7.60
2014,11,22,00,31,7.60
2014,11,22,00,32,7.60
2014,11,22,00,33,7.60
2014,11,22,00,34,7.60
2014,11,22,00,35,7.70
2014,11,22,00,36,7.80
2014,11,22,00,37,7.80
2014,11,22,00,38,7.80
2014,11,22,00,39,7.80
2014,11,22,00,40,7.80
2014,11,22,00,41,7.80
2014,11,22,00,42,7.80
2014,11,22,00,43,7.80
2014,11,22,00,44,7.70
2014,11,22,00,45,7.70
2014,11,22,00,46,7.60
2014,11,22,00,47,7.50
2014,11,22,00,48,7.40
2014,11,22,00,49,7.30
2014,11,22,00,50,7.20
2014,11,22,00,51,7.20
2014,11,22,00,52,7.10
2014,11,22,00,53,7.00
2014,11,22,00,54,7.00
2014,11,22,00,55,6.90
2014,11,22,00,56,7.00
2014,11,22,00,57,7.00
2014,11,22,00,58,7.20
2014,11,22,00,59,7.30
2014,11,22,01,00,7.50
2014,11,22,01,01,7.60
2014,11,22,01,02,7.60
2014,11,22,01,03,7.70
2014,11,22,01,04,7.80
2014,11,22,01,05,7.90
2014,11,22,01,06,7.90
2014,11,22,01,07,8.00
2014,11,22,01,08,8.00
2014,11,22,01,09,8.00
2014,11,22,01,10,8.00
2014,11,22,01,11,8.00
2014,11,22,01,12,8.00
2014,11,22,01,13,8.10
2014,11,22,01,14,8.10
2014,11,22,01,15,8.20
2014,11,22,01,16,8.20
2014,11,22,01,17,8.20
2014,11,22,01,18,8.20
2014,11,22,01,19,8.20
2014,11,22,01,20,8.20
2014,11,22,01,21,8.10
2014,11,22,01,22,8.10
2014,11,22,01,23,8.20
2014,11,22,01,24,8.20
2014,11,22,01,25,8.20
2014,11,22,01,26,8.20
2014,11,22,01,27,8.20
2014,11,22,01,28,8.20
2014,11,22,01,29,8.20
2014,11,22,01,30,8.30
2014,11,22,01,31,8.30
2014,11,22,01,32,8.30
2014,11,22,01,33,8.30
2014,11,22,01,34,8.30
2014,11,22,01,35,8.30
2014,11,22,01,36,8.30
2014,11,22,01,37,8.30
2014,11,22,01,38,8.30
2014,11,22,01,39,8.30
2014,11,22,01,40,8.20
2014,11,22,01,41,8.20
2014,11,22,01,42,8.20
2014,11,22,01,43,8.20
2014,11,22,01,44,8.20
2014,11,22,01,45,8.20
2014,11,22,01,46,8.20
2014,11,22,01,47,8.20
2014,11,22,01,48,8.20
2014,11,22,01,49,8.20
2014,11,22,01,50,8.20
2014,11,22,01,51,8.20
2014,11,22,01,52,8.20
2014,11,22,01,53,8.20
2014,11,22,01,54,8.20
2014,11,22,01,55,8.20
2014,11,22,01,56,8.20
2014,11,22,01,57,8.20
2014,11,22,01,58,8.20
2014,11,22,01,59,8.20
2014,11,22,02,00,8.20
2014,11,22,02,01,8.20
2014,11,22,02,02,8.20
2014,11,22,02,03,8.20
2014,11,22,02,04,8.20
2014,11,22,02,05,8.10
2014,11,22,02,06,8.10
2014,11,22,02,07,8.10
2014,11,22,02,08,8.00
2014,11,22,02,09,7.90
2014,11,22,02,10,7.90
2014,11,22,02,11,7.80
2014,11,22,02,12,7.80
2014,11,22,02,13,7.60
2014,11,22,02,14,7.40
2014,11,22,02,15,7.30
2014,11,22,02,16,7.00
2014,11,22,02,17,6.80
2014,11,22,02,18,6.60
2014,11,22,02,19,6.30
2014,11,22,02,20,6.10
2014,11,22,02,21,6.00
2014,11,22,02,22,5.90
2014,11,22,02,23,5.80
2014,11,22,02,24,5.70
2014,11,22,02,25,5.60
2014,11,22,02,26,5.50
2014,11,22,02,27,5.40
2014,11,22,02,28,5.40
2014,11,22,02,29,5.30
2014,11,22,02,30,5.30
2014,11,22,02,31,5.30
2014,11,22,02,32,5.30
2014,11,22,02,33,5.20
2014,11,22,02,34,5.20
2014,11,22,02,35,5.20
2014,11,22,02,36,5.20
2014,11,22,02,37,5.20
2014,11,22,02,38,5.20
2014,11,22,02,39,5.20
2014,11,22,02,40,5.20
2014,11,22,02,41,5.20
2014,11,22,02,42,5.20
2014,11,22,02,43,5.20
2014,11,22,02,44,5.30
2014,11,22,02,45,5.40
2014,11,22,02,46,5.50
2014,11,22,02,47,5.50
2014,11,22,02,48,5.60
2014,11,22,02,49,5.70
2014,11,22,02,50,5.80
2014,11,22,02,51,5.80
2014,11,22,02,52,5.90
2014,11,22,02,53,5.90
2014,11,22,02,54,5.90
2014,11,22,02,55,5.90
2014,11,22,02,56,5.80
2014,11,22,02,57,5.80
2014,11,22,02,58,5.80
2014,11,22,02,59,5.80
2014,11,22,03,00,5.80
2014,11,22,03,01,5.70
2014,11,22,03,02,5.50
2014,11,22,03,03,5.50
2014,11,22,03,04,5.40
2014,11,22,03,05,5.30
2014,11,22,03,06,5.10
2014,11,22,03,07,5.10
2014,11,22,03,08,5.00
2014,11,22,03,09,5.00
2014,11,22,03,10,4.90
2014,11,22,03,11,4.90
2014,11,22,03,12,4.90
2014,11,22,03,13,5.00
2014,11,22,03,14,5.00
2014,11,22,03,15,5.00
2014,11,22,03,16,5.10
2014,11,22,03,17,5.10
2014,11,22,03,18,5.10
2014,11,22,03,19,5.10
2014,11,22,03,20,5.10
2014,11,22,03,21,5.10
2014,11,22,03,22,5.10
2014,11,22,03,23,5.20
2014,11,22,03,24,5.20
2014,11,22,03,25,5.20
2014,11,22,03,26,5.20
2014,11,22,03,27,5.20
2014,11,22,03,28,5.20
2014,11,22,03,29,5.20
2014,11,22,03,30,5.20
2014,11,22,03,31,5.20
2014,11,22,03,32,5.20
2014,11,22,03,33,5.20
2014,11,22,03,34,5.10
2014,11,22,03,35,5.10
2014,11,22,03,36,5.20
2014,11,22,03,37,5.20
2014,11,22,03,38,5.20
2014,11,22,03,39,5.30
2014,11,22,03,40,5.30
2014,11,22,03,41,5.30
2014,11,22,03,42,5.30
2014,11,22,03,43,5.20
2014,11,22,03,44,5.20
2014,11,22,03,45,5.20
2014,11,22,03,46,5.30
2014,11,22,03,47,5.30
2014,11,22,03,48,5.30
2014,11,22,03,49,5.30
2014,11,22,03,50,5.30
2014,11,22,03,51,5.30
2014,11,22,03,52,5.30
2014,11,22,03,53,5.30
2014,11,22,03,54,5.30
2014,11,22,03,55,5.30
2014,11,22,03,56,5.30
2014,11,22,03,57,5.40
2014,11,22,03,58,5.40
2014,11,22,03,59,5.40
2014,11,22,04,00,5.40
2014,11,22,04,01,5.50
2014,11,22,04,02,5.60
2014,11,22,04,03,5.60
2014,11,22,04,04,5.60
2014,11,22,04,05,5.60
2014,11,22,04,06,5.60
2014,11,22,04,07,5.60
2014,11,22,04,08,5.70
2014,11,22,04,09,5.70
2014,11,22,04,10,5.80
2014,11,22,04,11,5.80
2014,11,22,04,12,5.80
2014,11,22,04,13,5.90
2014,11,22,04,14,5.90
2014,11,22,04,15,5.90
2014,11,22,04,16,5.90
2014,11,22,04,17,5.90
2014,11,22,04,18,5.90
2014,11,22,04,19,5.80
2014,11,22,04,20,5.80
2014,11,22,04,21,5.80
2014,11,22,04,22,5.70
2014,11,22,04,23,5.70
2014,11,22,04,24,5.70
2014,11,22,04,25,5.60
2014,11,22,04,26,5.60
2014,11,22,04,27,5.60
2014,11,22,04,28,5.60
2014,11,22,04,29,5.60
2014,11,22,04,30,5.60
2014,11,22,04,31,5.60
2014,11,22,04,32,5.60
2014,11,22,04,33,5.60
2014,11,22,04,34,5.60
2014,11,22,04,35,5.60
2014,11,22,04,36,5.60
2014,11,22,04,37,5.50
2014,11,22,04,38,5.50
2014,11,22,04,39,5.50
2014,11,22,04,40,5.40
2014,11,22,04,41,5.40
2014,11,22,04,42,5.30
2014,11,22,04,43,5.20
2014,11,22,04,44,5.10
2014,11,22,04,45,5.00
2014,11,22,04,46,4.90
2014,11,22,04,47,4.90
2014,11,22,04,48,4.90
2014,11,22,04,49,4.90
2014,11,22,04,50,4.90
2014,11,22,04,51,4.90
2014,11,22,04,52,4.80
2014,11,22,04,53,4.80
2014,11,22,04,54,4.80
2014,11,22,04,55,4.80
2014,11,22,04,56,4.80
2014,11,22,04,57,4.80
2014,11,22,04,58,4.80
2014,11,22,04,59,4.70
2014,11,22,05,00,4.70
2014,11,22,05,01,4.70
2014,11,22,05,02,4.70
2014,11,22,05,03,4.60
2014,11,22,05,04,4.60
2014,11,22,05,05,4.50
2014,11,22,05,06,4.50
2014,11,22,05,07,4.40
2014,11,22,05,08,4.40
2014,11,22,05,09,4.40
2014,11,22,05,10,4.50
2014,11,22,05,11,4.50
2014,11,22,05,12,4.60
2014,11,22,05,13,4.70
2014,11,22,05,14,4.80
2014,11,22,05,15,4.90
2014,11,22,05,16,4.90
2014,11,22,05,17,5.00
2014,11,22,05,18,5.00
2014,11,22,05,19,5.00
2014,11,22,05,20,5.00
2014,11,22,05,21,4.90
2014,11,22,05,22,4.90
2014,11,22,05,23,4.90
2014,11,22,05,24,4.90
2014,11,22,05,25,4.80
2014,11,22,05,26,4.80
2014,11,22,05,27,4.80
2014,11,22,05,28,4.70
2014,11,22,05,29,4.70
2014,11,22,05,30,4.70
2014,11,22,05,31,4.60
2014,11,22,05,32,4.60
2014,11,22,05,33,4.60
2014,11,22,05,34,4.50
2014,11,22,05,35,4.60
2014,11,22,05,36,4.50
2014,11,22,05,37,4.50
2014,11,22,05,38,4.50
2014,11,22,05,39,4.50
2014,11,22,05,40,4.40
2014,11,22,05,41,4.40
2014,11,22,05,42,4.30
2014,11,22,05,43,4.30
2014,11,22,05,44,4.20
2014,11,22,05,45,4.20
2014,11,22,05,46,4.20
2014,11,22,05,47,4.20
2014,11,22,05,48,4.30
2014,11,22,05,49,4.30
2014,11,22,05,50,4.20
2014,11,22,05,51,4.20
2014,11,22,05,52,4.20
2014,11,22,05,53,4.20
2014,11,22,05,54,4.10
2014,11,22,05,55,4.10
2014,11,22,05,56,4.10
2014,11,22,05,57,4.10
2014,11,22,05,58,4.10
2014,11,22,05,59,4.10
2014,11,22,06,00,4.10
2014,11,22,06,01,4.10
2014,11,22,06,02,4.10
2014,11,22,06,03,4.10
2014,11,22,06,04,4.10
2014,11,22,06,05,4.00
2014,11,22,06,06,3.90
2014,11,22,06,07,3.80
2014,11,22,06,08,3.80
2014,11,22,06,09,3.80
2014,11,22,06,10,3.80
2014,11,22,06,11,3.80
2014,11,22,06,12,3.80
2014,11,22,06,13,3.80
2014,11,22,06,14,3.80
2014,11,22,06,15,3.80
2014,11,22,06,16,3.70
2014,11,22,06,17,3.70
2014,11,22,06,18,3.70
2014,11,22,06,19,3.70
2014,11,22,06,20,3.70
2014,11,22,06,21,3.70
2014,11,22,06,22,3.70
2014,11,22,06,23,3.70
2014,11,22,06,24,3.70
2014,11,22,06,25,3.60
2014,11,22,06,26,3.60
2014,11,22,06,27,3.60
2014,11,22,06,28,3.60
2014,11,22,06,29,3.60
2014,11,22,06,30,3.60
2014,11,22,06,31,3.60
2014,11,22,06,32,3.60
2014,11,22,06,33,3.60
2014,11,22,06,34,3.60
2014,11,22,06,35,3.60
2014,11,22,06,36,3.60
2014,11,22,06,37,3.60
2014,11,22,06,38,3.70
2014,11,22,06,39,3.70
2014,11,22,06,40,3.70
2014,11,22,06,41,3.60
2014,11,22,06,42,3.60
2014,11,22,06,43,3.60
2014,11,22,06,44,3.60
2014,11,22,06,45,3.70
2014,11,22,06,46,3.70
2014,11,22,06,47,3.70
2014,11,22,06,48,3.70
2014,11,22,06,49,3.60
2014,11,22,06,50,3.50
2014,11,22,06,51,3.50
2014,11,22,06,52,3.40
2014,11,22,06,53,3.40
2014,11,22,06,54,3.40
2014,11,22,06,55,3.40
2014,11,22,06,56,3.50
2014,11,22,06,57,3.50
2014,11,22,06,58,3.50
2014,11,22,06,59,3.60
2014,11,22,07,00,3.60
2014,11,22,07,01,3.60
2014,11,22,07,02,3.70
2014,11,22,07,03,3.70
2014,11,22,07,04,3.60
2014,11,22,07,05,3.50
2014,11,22,07,06,3.50
2014,11,22,07,07,3.40
2014,11,22,07,08,3.40
2014,11,22,07,09,3.40
2014,11,22,07,10,3.40
2014,11,22,07,11,3.40
2014,11,22,07,12,3.40
2014,11,22,07,13,3.40
2014,11,22,07,14,3.30
2014,11,22,07,15,3.30
2014,11,22,07,16,3.30
2014,11,22,07,17,3.30
2014,11,22,07,18,3.20
2014,11,22,07,19,3.20
2014,11,22,07,20,3.20
2014,11,22,07,21,3.20
2014,11,22,07,22,3.20
2014,11,22,07,23,3.20
2014,11,22,07,24,3.30
2014,11,22,07,25,3.30
2014,11,22,07,26,3.40
2014,11,22,07,27,3.30
2014,11,22,07,28,3.30
2014,11,22,07,29,3.30
2014,11,22,07,30,3.30
2014,11,22,07,31,3.30
2014,11,22,07,32,3.20
2014,11,22,07,33,3.20
2014,11,22,07,34,3.20
2014,11,22,07,35,3.20
2014,11,22,07,36,3.20
2014,11,22,07,37,3.20
2014,11,22,07,38,3.20
2014,11,22,07,39,3.20
2014,11,22,07,40,3.20
2014,11,22,07,41,3.10
2014,11,22,07,42,3.10
2014,11,22,07,43,3.10
2014,11,22,07,44,3.10
2014,11,22,07,45,3.00
2014,11,22,07,46,2.90
2014,11,22,07,47,2.90
2014,11,22,07,48,2.80
2014,11,22,07,49,2.80
2014,11,22,07,50,2.90
2014,11,22,07,51,3.00
2014,11,22,07,52,3.00
2014,11,22,07,53,3.10
2014,11,22,07,54,3.20
2014,11,22,07,55,3.20
2014,11,22,07,56,3.20
2014,11,22,07,57,3.30
2014,11,22,07,58,3.40
2014,11,22,07,59,3.60
2014,11,22,08,00,3.80
2014,11,22,08,01,3.80
2014,11,22,08,02,3.80
2014,11,22,08,03,3.90
2014,11,22,08,04,4.00
2014,11,22,08,05,4.10
2014,11,22,08,06,4.20
2014,11,22,08,07,4.30
2014,11,22,08,08,4.30
2014,11,22,08,09,4.30
2014,11,22,08,10,4.30
2014,11,22,08,11,4.00
2014,11,22,08,12,3.90
2014,11,22,08,13,3.80
2014,11,22,08,14,3.70
2014,11,22,08,15,3.60
2014,11,22,08,16,3.60
2014,11,22,08,17,3.60
2014,11,22,08,18,3.60
2014,11,22,08,19,3.60
2014,11,22,08,20,3.60
2014,11,22,08,21,3.60
2014,11,22,08,22,3.50
2014,11,22,08,23,3.40
2014,11,22,08,24,3.40
2014,11,22,08,25,3.30
2014,11,22,08,26,3.30
2014,11,22,08,27,3.30
2014,11,22,08,28,3.30
2014,11,22,08,29,3.20
2014,11,22,08,30,3.20
2014,11,22,08,31,3.20
2014,11,22,08,32,3.20
2014,11,22,08,33,3.10
2014,11,22,08,34,3.10
2014,11,22,08,35,3.00
2014,11,22,08,36,2.90
2014,11,22,08,37,2.80
2014,11,22,08,38,2.80
2014,11,22,08,39,2.70
2014,11,22,08,40,2.70
2014,11,22,08,41,2.70
2014,11,22,08,42,2.70
2014,11,22,08,43,2.70
2014,11,22,08,44,2.70
2014,11,22,08,45,2.70
2014,11,22,08,46,2.70
2014,11,22,08,47,2.80
2014,11,22,08,48,2.90
2014,11,22,08,49,3.00
2014,11,22,08,50,3.10
2014,11,22,08,51,3.20
2014,11,22,08,52,3.20
2014,11,22,08,53,3.20
2014,11,22,08,54,3.30
2014,11,22,08,55,3.30
2014,11,22,08,56,3.30
2014,11,22,08,57,3.30
2014,11,22,08,58,3.40
2014,11,22,08,59,3.50
2014,11,22,09,00,3.60
2014,11,22,09,01,3.80
2014,11,22,09,02,3.80
2014,11,22,09,03,3.80
2014,11,22,09,04,3.80
2014,11,22,09,05,3.70
2014,11,22,09,06,3.60
2014,11,22,09,07,3.60
2014,11,22,09,08,3.70
2014,11,22,09,09,3.70
2014,11,22,09,10,3.70
2014,11,22,09,11,3.80
2014,11,22,09,12,3.80
2014,11,22,09,13,3.90
2014,11,22,09,14,4.00
2014,11,22,09,15,4.00
2014,11,22,09,16,4.00
2014,11,22,09,17,4.00
2014,11,22,09,18,4.00
2014,11,22,09,19,4.00
2014,11,22,09,20,4.00
2014,11,22,09,21,4.00
2014,11,22,09,22,4.10
2014,11,22,09,23,4.10
2014,11,22,09,24,4.10
2014,11,22,09,25,4.20
2014,11,22,09,26,4.20
2014,11,22,09,27,4.20
2014,11,22,09,28,4.10
2014,11,22,09,29,4.00
2014,11,22,09,30,4.00
2014,11,22,09,31,3.90
2014,11,22,09,32,3.90
2014,11,22,09,33,4.00
2014,11,22,09,34,4.00
2014,11,22,09,35,4.10
2014,11,22,09,36,4.10
2014,11,22,09,37,4.20
2014,11,22,09,38,4.40
2014,11,22,09,39,4.50
2014,11,22,09,40,4.60
2014,11,22,09,41,4.70
2014,11,22,09,42,4.80
2014,11,22,09,43,4.90
2014,11,22,09,44,5.00
2014,11,22,09,45,5.10
2014,11,22,09,46,5.20
2014,11,22,09,47,5.20
2014,11,22,09,48,5.30
2014,11,22,09,49,5.40
2014,11,22,09,50,5.50
2014,11,22,09,51,5.50
2014,11,22,09,52,5.60
2014,11,22,09,53,5.60
2014,11,22,09,54,5.70
2014,11,22,09,55,5.70
2014,11,22,09,56,5.70
2014,11,22,09,57,5.70
2014,11,22,09,58,5.70
2014,11,22,09,59,5.80
2014,11,22,10,00,5.80
2014,11,22,10,01,5.70
2014,11,22,10,02,5.70
2014,11,22,10,03,5.70
2014,11,22,10,04,5.70
2014,11,22,10,05,5.70
2014,11,22,10,06,5.60
2014,11,22,10,07,5.60
2014,11,22,10,08,5.60
2014,11,22,10,09,5.60
2014,11,22,10,10,5.60
2014,11,22,10,11,5.60
2014,11,22,10,12,5.70
2014,11,22,10,13,5.70
2014,11,22,10,14,5.70
2014,11,22,10,15,5.70
2014,11,22,10,16,5.70
2014,11,22,10,17,5.80
2014,11,22,10,18,5.80
2014,11,22,10,19,5.80
2014,11,22,10,20,5.80
2014,11,22,10,21,5.90
2014,11,22,10,22,5.90
2014,11,22,10,23,6.00
2014,11,22,10,24,6.10
2014,11,22,10,25,6.10
2014,11,22,10,26,6.20
2014,11,22,10,27,6.30
2014,11,22,10,28,6.40
2014,11,22,10,29,6.60
2014,11,22,10,30,6.70
2014,11,22,10,31,6.80
2014,11,22,10,32,6.90
2014,11,22,10,33,7.10
2014,11,22,10,34,7.20
2014,11,22,10,35,7.40
2014,11,22,10,36,7.50
2014,11,22,10,37,7.60
2014,11,22,10,38,7.70
2014,11,22,10,39,7.80
2014,11,22,10,40,7.90
2014,11,22,10,41,8.00
2014,11,22,10,42,8.00
2014,11,22,10,43,8.10
2014,11,22,10,44,8.10
2014,11,22,10,45,8.20
2014,11,22,10,46,8.20
2014,11,22,10,47,8.30
2014,11,22,10,48,8.40
2014,11,22,10,49,8.50
2014,11,22,10,50,8.60
2014,11,22,10,51,8.60
2014,11,22,10,52,8.70
2014,11,22,10,53,8.70
2014,11,22,10,54,8.80
2014,11,22,10,55,8.80
2014,11,22,10,56,8.80
2014,11,22,10,57,8.80
2014,11,22,10,58,8.90
2014,11,22,10,59,8.90
2014,11,22,11,00,9.00
2014,11,22,11,01,9.00
2014,11,22,11,02,9.10
2014,11,22,11,03,9.10
2014,11,22,11,04,9.20
2014,11,22,11,05,9.30
2014,11,22,11,06,9.30
2014,11,22,11,07,9.30
2014,11,22,11,08,9.30
2014,11,22,11,09,9.30
2014,11,22,11,10,9.40
2014,11,22,11,11,9.40
2014,11,22,11,12,9.50
2014,11,22,11,13,9.50
2014,11,22,11,14,9.60
2014,11,22,11,15,9.60
2014,11,22,11,16,9.60
2014,11,22,11,17,9.60
2014,11,22,11,18,9.70
2014,11,22,11,19,9.70
2014,11,22,11,20,9.80
2014,11,22,11,21,9.80
2014,11,22,11,22,9.90
2014,11,22,11,23,9.90
2014,11,22,11,24,10.00
2014,11,22,11,25,10.00
2014,11,22,11,26,10.10
2014,11,22,11,27,10.10
2014,11,22,11,28,10.20
2014,11,22,11,29,10.30
2014,11,22,11,30,10.30
2014,11,22,11,31,10.40
2014,11,22,11,32,10.50
2014,11,22,11,33,10.50
2014,11,22,11,34,10.60
2014,11,22,11,35,10.70
2014,11,22,11,36,10.80
2014,11,22,11,37,10.80
2014,11,22,11,38,10.90
2014,11,22,11,39,10.90
2014,11,22,11,40,10.90
2014,11,22,11,41,10.90
2014,11,22,11,42,11.00
2014,11,22,11,43,11.00
2014,11,22,11,44,11.00
2014,11,22,11,45,11.00
2014,11,22,11,46,11.00
2014,11,22,11,47,11.00
2014,11,22,11,48,11.00
2014,11,22,11,49,11.00
2014,11,22,11,50,11.00
2014,11,22,11,51,11.00
2014,11,22,11,52,11.00
2014,11,22,11,53,11.00
2014,11,22,11,54,11.10
2014,11,22,11,55,11.10
2014,11,22,11,56,11.10
2014,11,22,11,57,11.20
2014,11,22,11,58,11.20
2014,11,22,11,59,11.20
2014,11,22,12,00,11.30
2014,11,22,12,01,11.30
2014,11,22,12,02,11.30
2014,11,22,12,03,11.30
2014,11,22,12,04,11.30
2014,11,22,12,05,11.40
2014,11,22,12,06,11.40
2014,11,22,12,07,11.50
2014,11,22,12,08,11.50
2014,11,22,12,09,11.60
2014,11,22,12,10,11.60
2014,11,22,12,11,11.60
2014,11,22,12,12,11.60
2014,11,22,12,13,11.60
2014,11,22,12,14,11.60
2014,11,22,12,15,11.60
2014,11,22,12,16,11.60
2014,11,22,12,17,11.60
2014,11,22,12,18,11.60
2014,11,22,12,19,11.60
2014,11,22,12,20,11.70
2014,11,22,12,21,11.70
2014,11,22,12,22,11.70
2014,11,22,12,23,11.80
2014,11,22,12,24,11.80
2014,11,22,12,25,11.70
2014,11,22,12,26,11.70
2014,11,22,12,27,11.60
2014,11,22,12,28,11.60
2014,11,22,12,29,11.60
2014,11,22,12,30,11.60
2014,11,22,12,31,11.60
2014,11,22,12,32,11.60
2014,11,22,12,33,11.70
2014,11,22,12,34,11.70
2014,11,22,12,35,11.70
2014,11,22,12,36,11.70
2014,11,22,12,37,11.70
2014,11,22,12,38,11.70
2014,11,22,12,39,11.70
2014,11,22,12,40,11.70
2014,11,22,12,41,11.70
2014,11,22,12,42,11.70
2014,11,22,12,43,11.70
2014,11,22,12,44,11.80
2014,11,22,12,45,11.80
2014,11,22,12,46,11.80
2014,11,22,12,47,11.80
2014,11,22,12,48,11.80
2014,11,22,12,49,11.80
2014,11,22,12,50,11.90
2014,11,22,12,51,11.90
2014,11,22,12,52,11.90
2014,11,22,12,53,11.90
2014,11,22,12,54,11.90
2014,11,22,12,55,11.90
2014,11,22,12,56,11.80
2014,11,22,12,57,11.80
2014,11,22,12,58,11.80
2014,11,22,12,59,11.70
2014,11,22,13,00,11.70
2014,11,22,13,01,11.60
2014,11,22,13,02,11.60
2014,11,22,13,03,11.60
2014,11,22,13,04,11.60
2014,11,22,13,05,11.60
2014,11,22,13,06,11.70
2014,11,22,13,07,11.70
2014,11,22,13,08,11.70
2014,11,22,13,09,11.70
2014,11,22,13,10,11.70
2014,11,22,13,11,11.70
2014,11,22,13,12,11.80
2014,11,22,13,13,11.80
2014,11,22,13,14,11.90
2014,11,22,13,15,11.90
2014,11,22,13,16,12.00
2014,11,22,13,17,12.10
2014,11,22,13,18,12.10
2014,11,22,13,19,12.10
2014,11,22,13,20,12.10
2014,11,22,13,21,12.10
2014,11,22,13,22,12.10
2014,11,22,13,23,12.10
2014,11,22,13,24,12.00
2014,11,22,13,25,12.00
2014,11,22,13,26,11.90
2014,11,22,13,27,12.00
2014,11,22,13,28,12.00
2014,11,22,13,29,12.00
2014,11,22,13,30,12.10
2014,11,22,13,31,12.00
2014,11,22,13,32,12.00
2014,11,22,13,33,12.00
2014,11,22,13,34,12.10
2014,11,22,13,35,12.20
2014,11,22,13,36,12.20
2014,11,22,13,37,12.30
2014,11,22,13,38,12.30
2014,11,22,13,39,12.20
2014,11,22,13,40,12.20
2014,11,22,13,41,12.20
2014,11,22,13,42,12.20
2014,11,22,13,43,12.20
2014,11,22,13,44,12.20
2014,11,22,13,45,12.20
2014,11,22,13,46,12.20
2014,11,22,13,47,12.20
2014,11,22,13,48,12.20
2014,11,22,13,49,12.20
2014,11,22,13,50,12.20
2014,11,22,13,51,12.20
2014,11,22,13,52,12.10
2014,11,22,13,53,12.10
2014,11,22,13,54,12.20
2014,11,22,13,55,12.20
2014,11,22,13,56,12.20
2014,11,22,13,57,12.20
2014,11,22,13,58,12.20
2014,11,22,13,59,12.10
2014,11,22,14,00,12.10
2014,11,22,14,01,12.20
2014,11,22,14,02,12.10
2014,11,22,14,03,12.10
2014,11,22,14,04,12.10
2014,11,22,14,05,12.10
2014,11,22,14,06,12.10
2014,11,22,14,07,12.00
2014,11,22,14,08,12.00
2014,11,22,14,09,12.00
2014,11,22,14,10,12.00
2014,11,22,14,11,12.00
2014,11,22,14,12,12.10
2014,11,22,14,13,12.10
2014,11,22,14,14,12.00
2014,11,22,14,15,12.00
2014,11,22,14,16,12.00
2014,11,22,14,17,12.00
2014,11,22,14,18,12.00
2014,11,22,14,19,11.90
2014,11,22,14,20,11.90
2014,11,22,14,21,11.90
2014,11,22,14,22,12.00
2014,11,22,14,23,12.00
2014,11,22,14,24,12.00
2014,11,22,14,25,12.00
2014,11,22,14,26,12.10
2014,11,22,14,27,12.00
2014,11,22,14,28,12.00
2014,11,22,14,29,12.10
2014,11,22,14,30,12.10
2014,11,22,14,31,12.10
2014,11,22,14,32,12.10
2014,11,22,14,33,12.20
2014,11,22,14,34,12.20
2014,11,22,14,35,12.10
2014,11,22,14,36,12.10
2014,11,22,14,37,12.00
2014,11,22,14,38,12.00
2014,11,22,14,39,11.90
2014,11,22,14,40,11.80
2014,11,22,14,41,11.80
2014,11,22,14,42,11.70
2014,11,22,14,43,11.70
2014,11,22,14,44,11.70
2014,11,22,14,45,11.70
2014,11,22,14,46,11.70
2014,11,22,14,47,11.70
2014,11,22,14,48,11.80
2014,11,22,14,49,11.80
2014,11,22,14,50,11.80
2014,11,22,14,51,11.90
2014,11,22,14,52,11.90
2014,11,22,14,53,11.90
2014,11,22,14,54,11.90
2014,11,22,14,55,12.00
2014,11,22,14,56,12.00
2014,11,22,14,57,12.10
2014,11,22,14,58,12.10
2014,11,22,14,59,12.10
2014,11,22,15,00,12.10
2014,11,22,15,01,12.20
2014,11,22,15,02,12.10
2014,11,22,15,03,12.10
2014,11,22,15,04,12.10
2014,11,22,15,05,12.20
2014,11,22,15,06,12.20
2014,11,22,15,07,12.20
2014,11,22,15,08,12.20
2014,11,22,15,09,12.20
2014,11,22,15,10,12.30
2014,11,22,15,11,12.30
2014,11,22,15,12,12.30
2014,11,22,15,13,12.30
2014,11,22,15,14,12.20
2014,11,22,15,15,12.20
2014,11,22,15,16,12.10
2014,11,22,15,17,12.10
2014,11,22,15,18,12.00
2014,11,22,15,19,12.00
2014,11,22,15,20,12.00
2014,11,22,15,21,11.90
2014,11,22,15,22,11.90
2014,11,22,15,23,11.80
2014,11,22,15,24,11.80
2014,11,22,15,25,11.80
2014,11,22,15,26,11.80
2014,11,22,15,27,11.80
2014,11,22,15,28,11.70
2014,11,22,15,29,11.70
2014,11,22,15,30,11.70
2014,11,22,15,31,11.70
2014,11,22,15,32,11.60
2014,11,22,15,33,11.60
2014,11,22,15,34,11.60
2014,11,22,15,35,11.60
2014,11,22,15,36,11.60
2014,11,22,15,37,11.50
2014,11,22,15,38,11.50
2014,11,22,15,39,11.40
2014,11,22,15,40,11.40
2014,11,22,15,41,11.30
2014,11,22,15,42,11.30
2014,11,22,15,43,11.30
2014,11,22,15,44,11.20
2014,11,22,15,45,11.20
2014,11,22,15,46,11.20
2014,11,22,15,47,11.20
2014,11,22,15,48,11.20
2014,11,22,15,49,11.20
2014,11,22,15,50,11.20
2014,11,22,15,51,11.10
2014,11,22,15,52,11.10
2014,11,22,15,53,11.10
2014,11,22,15,54,11.00
2014,11,22,15,55,11.00
2014,11,22,15,56,11.00
2014,11,22,15,57,10.90
2014,11,22,15,58,10.90
2014,11,22,15,59,10.90
2014,11,22,16,00,10.90
2014,11,22,16,01,10.80
2014,11,22,16,02,10.80
2014,11,22,16,03,10.80
2014,11,22,16,04,10.80
2014,11,22,16,05,10.70
2014,11,22,16,06,10.70
2014,11,22,16,07,10.70
2014,11,22,16,08,10.70
2014,11,22,16,09,10.60
2014,11,22,16,10,10.60
2014,11,22,16,11,10.50
2014,11,22,16,12,10.50
2014,11,22,16,13,10.50
2014,11,22,16,14,10.40
2014,11,22,16,15,10.40
2014,11,22,16,16,10.40
2014,11,22,16,17,10.30
2014,11,22,16,18,10.30
2014,11,22,16,19,10.20
2014,11,22,16,20,10.20
2014,11,22,16,21,10.20
2014,11,22,16,22,10.10
2014,11,22,16,23,10.10
2014,11,22,16,24,10.00
2014,11,22,16,25,10.00
2014,11,22,16,26,10.00
2014,11,22,16,27,10.10
2014,11,22,16,28,10.10
2014,11,22,16,29,10.10
2014,11,22,16,30,10.10
2014,11,22,16,31,10.00
2014,11,22,16,32,10.00
2014,11,22,16,33,10.00
2014,11,22,16,34,9.90
2014,11,22,16,35,9.90
2014,11,22,16,36,9.90
2014,11,22,16,37,9.90
2014,11,22,16,38,9.90
2014,11,22,16,39,9.90
2014,11,22,16,40,9.90
2014,11,22,16,41,9.90
2014,11,22,16,42,9.90
2014,11,22,16,43,9.90
2014,11,22,16,44,9.90
2014,11,22,16,45,10.00
2014,11,22,16,46,10.00
2014,11,22,16,47,10.00
2014,11,22,16,48,10.00
2014,11,22,16,49,10.00
2014,11,22,16,50,10.00
2014,11,22,16,51,9.90
2014,11,22,16,52,9.90
2014,11,22,16,53,9.90
2014,11,22,16,54,9.90
2014,11,22,16,55,9.90
2014,11,22,16,56,9.90
2014,11,22,16,57,9.90
2014,11,22,16,58,9.90
2014,11,22,16,59,9.90
2014,11,22,17,00,9.90
2014,11,22,17,01,9.90
2014,11,22,17,02,9.80
2014,11,22,17,03,9.80
2014,11,22,17,04,9.80
2014,11,22,17,05,9.80
2014,11,22,17,06,9.80
2014,11,22,17,07,9.80
2014,11,22,17,08,9.70
2014,11,22,17,09,9.70
2014,11,22,17,10,9.70
2014,11,22,17,11,9.60
2014,11,22,17,12,9.60
2014,11,22,17,13,9.50
2014,11,22,17,14,9.50
2014,11,22,17,15,9.50
2014,11,22,17,16,9.40
2014,11,22,17,17,9.40
2014,11,22,17,18,9.40
2014,11,22,17,19,9.30
2014,11,22,17,20,9.30
2014,11,22,17,21,9.30
2014,11,22,17,22,9.20
2014,11,22,17,23,9.20
2014,11,22,17,24,9.20
2014,11,22,17,25,9.20
2014,11,22,17,26,9.10
2014,11,22,17,27,9.10
2014,11,22,17,28,9.00
2014,11,22,17,29,8.90
2014,11,22,17,30,8.90
2014,11,22,17,31,8.80
2014,11,22,17,32,8.80
2014,11,22,17,33,8.70
2014,11,22,17,34,8.70
2014,11,22,17,35,8.60
2014,11,22,17,36,8.60
2014,11,22,17,37,8.60
2014,11,22,17,38,8.60
2014,11,22,17,39,8.50
2014,11,22,17,40,8.50
2014,11,22,17,41,8.50
2014,11,22,17,42,8.40
2014,11,22,17,43,8.40
2014,11,22,17,44,8.40
2014,11,22,17,45,8.30
2014,11,22,17,46,8.20
2014,11,22,17,47,8.20
2014,11,22,17,48,8.20
2014,11,22,17,49,8.10
2014,11,22,17,50,8.10
2014,11,22,17,51,8.10
2014,11,22,17,52,8.10